Regional Weather Roundup
Issued by NWS Wakefield, VA

Home | Current Version | Previous Version | Text Only | Print | Product List | Glossary On
Versions: 1 2 3 4 5 6 7 8 9 10 11 12 13 14 15 16 17 18 19 20 21 22 23 24 25 26 27 28 29 30 31 32 33 34 35 36 37 38 39 40 41 42 43 44 45 46 47 48 49 50
139
ASUS41 KAKQ 191215
RWRAKQ

REGIONAL WEATHER ROUNDUP
NATIONAL WEATHER SERVICE WAKEFIELD VA
700 AM EST SUN FEB 19 2017

Note: "fair" indicates few or no clouds below 12,000 feet with no
significant weather and/or obstructions to visibility. * = Denotes
station may not report precipitation (e.g., rain,snow,etc.),
thunder or fog.

VAZ042-051-052>054-056-191300-
NORTHERN VIRGINIA

CITY           SKY/WX    TMP DP  RH WIND       PRES   REMARKS
WASH NATIONAL  CLOUDY    56  45  66 N5        29.86R
DULLES         CLOUDY    56  45  66 NW6       29.86R
FORT BELVOIR   CLOUDY    52  49  89 CALM      29.86R
QUANTICO       CLOUDY    51  48  89 CALM      29.87R
FREDERICKSBRG* CLOUDY    49  41  74 CALM      29.85R
STAFFORD*      CLOUDY    50  48  94 CALM      29.89S
WARRENTON      CLOUDY    57  46  65 CALM      29.86R
CULPEPER*      CLOUDY    53  49  87 CALM      29.87R
MANASSAS*      CLOUDY    50  47  89 CALM      29.87R
LEESBURG*      CLOUDY    57  48  72 NW16G22   29.87R
WINCHESTER     CLOUDY    52  45  76 W8        29.89R
FRONT ROYAL*   CLOUDY    50  48  93 CALM      29.88R
LURAY*         CLOUDY    45  45 100 CALM      29.89R
$$

VAZ048-049-060>072-079>083-191300-
CENTRAL AND SOUTH CENTRAL VIRGINIA

CITY           SKY/WX    TMP DP  RH WIND       PRES   REMARKS
RICHMOND       PTCLDY    51  41  68 NW3       29.86R
CHESTERFIELD*  FAIR      48  28  46 NW6       29.88R
PETERSBURG*    CLEAR     43  38  84 SW3       29.87R
HANOVER        CLEAR     47  37  68 CALM      29.87R
TAPPAHANNOCK*  CLEAR     51  27  38 SW3       29.86R
QUINTON*       FAIR      48  42  80 W7        29.86R
CHARLOTTSVILLE CLEAR     54  38  54 W3        29.86R
GORDONSVILLE*  MOSUNNY   45  39  81 SW3       29.85R
ORANGE*        MOCLDY    50  37  62 CALM      29.87R
LOUISA*        PTCLDY    46  39  76 CALM      29.85R
BUMPASS*       FAIR      45  35  68 CALM      29.85S
FARMVILLE*     CLEAR     43  39  84 CALM      29.86S
CREWE*         FAIR      49  39  67 W6        29.87R
FORT PICKETT*  FAIR      46  37  72 W6        29.87R
CHASE CITY*    FAIR      46  41  83 W3        29.89R
CLARKSVILLE*   FAIR      46  41  81 W3        29.89R
SOUTH HILL*    CLEAR     47  42  82 CALM      29.94R
LAWRENCEVILLE* FAIR      48  41  77 CALM      29.87R
EMPORIA*       CLEAR     41  39  93 CALM      29.89R
$$

VAZ088>098-191300-
SOUTHEAST VIRGINIA

CITY           SKY/WX    TMP DP  RH WIND       PRES   REMARKS
NORFOLK        CLEAR     54  44  69 SW8       29.84S
VIRGINIA BEACH PTCLDY    50  39  66 SW6       29.84S
NORFOLK NAVAL  PTCLDY    54  43  66 SW7       29.87R
WEST POINT*    CLEAR     44  39  81 CALM      29.88R
SALUDA*        FAIR      49  42  78 CALM      29.86R
NEWPORT NEWS   CLEAR     52  43  71 W6        29.86R
LANGLEY AFB    CLEAR     52  44  72 W7        29.85R
FORT EUSTIS    CLEAR     50  42  74 W3        29.84R
WILLIAMSBURG*  CLEAR     48  43  81 CALM      29.87R
HR EXEC AP*    FAIR      43  39  87 CALM      29.86R
FRANKLIN*      CLEAR     45  40  82 CALM      29.87R
US460-WAKEFLD  CLEAR     44  41  89 CALM      29.87R
$$

VAZ020-022-025-037-045-191300-
WEST CENTRAL AND SOUTHWEST VIRGINIA

CITY           SKY/WX    TMP DP  RH WIND       PRES   REMARKS
STAUNTON*      CLEAR     39  37  93 CALM      29.92R
WAYNESBORO*    SUNNY     49  35  58 W3        29.89R
HOT SPRINGS VA CLOUDY    41  41 100 NW21G31   29.92R
LYNCHBURG      CLEAR     45  34  65 CALM      29.91R
DANVILLE       CLEAR     43  39  86 W5        29.92R
SOUTH BOSTON*  FAIR      44  40  88 SW5       29.90R
MARTINSVILLE   CLEAR     41  37  86 CALM      29.95S
ROANOKE        CLOUDY    53  40  61 NW13      29.95R
BLACKSBURG     CLOUDY    48  41  75 W9G16     29.98R
DUBLIN*        CLOUDY    49  42  75 NW18      29.98R
MARION*        CLOUDY    46  45  93 W14       30.01R
HILLSVILLE*    CLOUDY    45  43  91 NW10      29.96R
RICHLANDS*     CLOUDY    44  44 100 W6        30.02R
WISE*          CLOUDY    45  45 100 CALM      30.04R
ABINGDON*      CLOUDY    47  47 100 W3        30.02R FOG
$$

MDZ021>025-VAZ099-100-191300-
SOUTHERN MARYLAND AND THE DELMARVA PENINSULA

CITY           SKY/WX    TMP DP  RH WIND       PRES   REMARKS
PATUXENT RIVER MOCLDY    52  38  58 NW8       29.84R
BAY BRIDGE APT CLOUDY    52  41  66 SW3       29.84R
LEONARDTOWN    MOCLDY    55  36  47 W5        29.86R
DOVER          CLOUDY    54  40  59 SW6       29.82R
GEORGETOWN     MOCLDY    56  37  49 CALM      29.83R
EASTON         NOT AVBL
CAMBRIDGE      CLOUDY    55  37  50 W3        29.84R
SALISBURY      PTCLDY    54  38  54 W3        29.82R
OCEAN CITY     CLOUDY    57  37  47 NW6       29.82S
WALLOPS ISLAND CLEAR     53  40  61 W7        29.84R
ACCOMACK*      CLEAR     54  40  60 W8        29.84R
$$

NCZ012>017-030>032-191300-
NORTH CENTRAL AND EASTERN NORTH CAROLINA

CITY           SKY/WX    TMP DP  RH WIND       PRES   REMARKS
ROANOKE RAPIDS FAIR      45  41  87 SW6       29.88S
RALEIGH        PTCLDY    45  42  89 SW6       29.92R
ELIZABETH CITY CLEAR     47  41  80 W5        29.85F
AHOSKIE*         N/A     44  41  88 CALM      29.88S
EDENTON*       CLEAR     54  44  68 W5        29.86F
CURRITUCK*     CLEAR     51  41  69 SW5       29.85F
KILL DEVIL HLS NOT AVBL
MANTEO         CLEAR     50  44  80 SW3       29.86F
CAPE HATTERAS  MOCLDY    57  48  72 SW7       29.92R HAZE
TARBORO*       NOT AVBL
GOLDSBORO      PTCLDY    48  47  96 SW6       29.88S
WASHINGTON     PTCLDY    49  42  75 SW5       29.89R
GREENVILLE     CLEAR     48  43  81 W3        29.90F
NEW BERN       CLEAR     50  43  77 SW3       29.92R
WILMINGTON     CLEAR     50  45  83 W5        29.93R
$$

VAZ048-191300-
ELSEWHERE

CITY           SKY/WX    TMP DP  RH WIND       PRES   REMARKS
HARRISBURG PA  CLOUDY    54  39  57 NW7       29.83R
BALTIMORE      LGT RAIN  56  42  59 W7        29.83R
ANNAPOLIS      CLOUDY    60  39  45 W5        29.83R
ANDREWS AFB    CLOUDY    57  45  63 W8        29.84R
PHILADELPHIA   CLOUDY    59  34  39 W8        29.81R
HENDERSON NC   CLEAR     44  38  79 CALM      29.90R
GREENSBORO     PTCLDY    46  41  82 NW7       29.92S
ROCKY MOUNT    CLEAR     49  45  86 W5        29.89S
$$

VAZ100-191300-
MARINE

STATION/POSITION TIME  TEMP    WIND        PRES    WAVE   SWELL
                       AIR SEA DIR/SP/G            HT/PER HT/PER
                 (UTC) (F)     (DEG/KT/KT) (MB)    (FT/S) (FT/S)
CAPE MAY NJ      1148   49 40  260/  5/  5 1009.6R
LEWES DE         1142   57 40  270/  6/  7 1009.8R
OCEAN-CITY-INLET 1142   57 42  310/  7/  9 1010.1R
WACHAPREAGUE VA  1148   54 46  240/  2/  3 1010.4R
THOMAS POINT MD  1200   56 39  280/  6/  7   N/A
GOOSES REEF MD   1150   50     280/  6/  6 1011.1R
COVE POINT MD    1148   59     320/ 10/ 12 1010.8R
SOLOMONS ISLAND  1142   57 42  310/  3/  5   N/A
BISHOPS HEAD MD  1148   50 42  290/  7/  7 1010.5R
PINEY POINT MD   1142          330/  7/  7   N/A
POTOMAC MD       1150   53     340/  4/  6 1009.5R
CAMBRIDGE MD     1148   58 40  260/  6/  9 1009.5R
LEWISETTA VA     1148   54 42     CALM     1010.3R
RAPPAHANNOCK LGT 1142          230/ 12/ 12 1010.9R
YORK RVR RNG VA  1148   52     270/  9/  9 1010.2R
YORKTOWN VA      1148   55 44  280/  4/  5 1010.7R
JAMESTOWN VA     1150   52     230/  4/  4   N/A
DOMINION TERM VA 1148   51     270/  4/  5 1010.9R
KIPTOPEKE VA     1142      45  270/  7/  9   N/A
CHES BAY BRIDGE  1148   53 45  240/  9/ 10 1010.5R
CAPE HENRY VA    1148   55     240/  7/ 11   N/A
WILLOUBY STN VA  1142   53     240/  9/ 10 1011.5R
S CRANEY ISL VA  1148   54     220/  4/  5 1010.6S
CAPE HENRY BUOY  1142      46                N/A     2/ 5
OFFSHORE WE BUOY 1151      47                N/A     3/ 7
64NM E OF VA BCH 1150   53 51  220/ 12/ 12 1010.3F   4/ 7   3/ 7
DUCK PIER NC     1148   54 47  250/  9/ 11 1010.2F
44100 DUCK FRF   1135      47                N/A     2/ 6
44056 DUCK FRF   1130      47                N/A     1/10
OREGON INLET NC  1142   51 51  170/  5/  6 1010.9F
HATTERAS NC      1148   56 56  220/  6/  9 1012.7R
DIAMOND SHLS NC  1150   63 68  280/ 10/ 12 1013.3R   3/ 4   2/ 5
CAPE LOOKOUT NC  1200   56     240/  6/  7 1013.0R
$$




USA.gov is the U.S. government's official web portal to all federal, state and local government web resources and services.